Incirlik Air Base

Airport
ICAO code: 
LTAG
IATA Code: 
UAB
Summary
ICAO Region: 
EUR
Territory: 
Location: 
Incirlik, Adana
Serving: 
Adana
Elevation: 
240 ft
Coordinates: 
Aerial View: 
37° 0' 6.998" N, 35° 25' 32.999" E
Airport GND: 
Foreign Object Debris
Metar
Observation
LTAG 281420Z 22012KT 9999 SCT035 BKN090 33/18 Q1005 NOSIG
Station
Adana / Incirlik
Date/Time
2022-06-28 14:20:00
Wind direction
220°
Wind speed
12 kts
Lowest cloud amount
scattered clouds
Temperature
33°C
Dew point
18°C
Humidity
41%
QNH
1005 hPa
Weather condition
n/a

Incirlik Air Base is a United States Air Force base, located near İncirlik, Turkey. Incirlik Air Base is located 8 km east of Adana, Turkey.

Runways

Designator Length Width Surface Rops
5/23 3048 45 CON Yes/Yes
Airport map: 
Aerial View: 

SKYbrary Partners:

Safety knowledge contributed by: